Flag for Germany Weather past 2 weeks in Leonberg, Baden-Württemberg, Germany

Now
55 °F

Passing clouds.


Feels Like: 55 °F
Forecast: 53 / 73 °F
Wind: 1 mph from West

Location: Stuttgart-Echterdingen

Current Time: Sep 15, 2014 at 6:55:57 AM

Latest Report: Sep 15, 2014 at 6:20 AM


Visibility: N/A

Pressure: 30.01 "Hg

Humidity: 100%

Dew point: 55 °F

Location of LeonbergLocation

Historic Weather in Leonberg — Graph

°F

Leonberg temperature yesterday

Maximum temperature yesterday: 66 °F (at 2:20 PM)
Minimum temperature yesterday: 57 °F (at 6:50 AM)
Average temperature yesterday: 61 °F

Past Weeks' High & Low Weather Summary

 TemperatureHumidityPressure
High77 °F (Sep 6, 2:50 PM)100% (Aug 31, 7:20 AM)30.18 "Hg (Aug 31, 7:20 AM)
Low52 °F (Sep 1, 4:20 AM)50% (Sep 5, 5:20 PM)29.92 "Hg (Sep 6, 2:20 PM)
Average60 °F85%30.05 "Hg
* Reported Aug 31 5:20 AM — Sep 15 5:20 AM, Leonberg, Weather by CustomWeather, © 2014

Note: Actual official high and low records may vary slightly from our data, if they occured in-between our weather recording intervals... More about our weather records

Advertising

Leonberg weather history for previous 24 hours

 ConditionsComfort  
Time TempWeatherWind HumidityBarometerVisibility
5:20 AM
Sep 15
55 °FPassing clouds.2 mph100%30.01 "HgN/A
4:20 AM52 °FPassing clouds.2 mph100%30.04 "HgN/A
3:50 AM52 °FClear.2 mph94%30.04 "Hg10 mi
3:20 AM52 °FClear.2 mph94%30.04 "Hg10 mi
2:50 AM52 °FClear.3 mph100%30.04 "Hg10 mi
2:20 AM54 °FPassing clouds.1 mph94%30.04 "HgN/A
1:50 AM54 °FPassing clouds.1 mph94%30.04 "HgN/A
1:20 AM54 °FClear.2 mph100%30.04 "Hg10 mi
12:50 AM55 °FPassing clouds.3 mph94%30.04 "HgN/A
12:20 AM55 °FPassing clouds.1 mph94%30.04 "HgN/A
11:50 PM
Sep 14
57 °FPassing clouds.2 mph88%30.04 "HgN/A
11:20 PM57 °FPassing clouds.2 mph94%30.04 "HgN/A
10:50 PM57 °FPassing clouds.6 mph88%30.04 "HgN/A
10:20 PM59 °FClear.7 mph88%30.04 "Hg10 mi
9:50 PM59 °FClear.6 mph82%30.04 "Hg10 mi
9:20 PM61 °FClear.5 mph83%30.04 "Hg10 mi
8:50 PM61 °FPassing clouds.6 mph83%30.04 "HgN/A
8:20 PM61 °FPassing clouds.8 mph83%30.04 "HgN/A
7:50 PM63 °FSunny.7 mph83%30.04 "Hg10 mi
7:20 PM64 °FScattered clouds.8 mph78%30.04 "HgN/A
6:50 PM64 °FScattered clouds.7 mph78%30.04 "HgN/A
6:20 PM66 °FPassing clouds.8 mph73%30.04 "HgN/A
5:50 PM66 °FScattered clouds.7 mph78%30.04 "HgN/A
5:20 PM66 °FScattered clouds.6 mph78%30.04 "HgN/A
4:50 PM66 °FScattered clouds.7 mph73%30.04 "HgN/A
4:20 PM66 °FScattered clouds.8 mph73%30.07 "HgN/A
3:50 PM66 °FScattered clouds.7 mph73%30.07 "HgN/A
3:20 PM66 °FScattered clouds.5 mph73%30.07 "HgN/A
2:50 PM66 °FScattered clouds.5 mph78%30.07 "HgN/A
2:20 PM66 °FScattered clouds.7 mph73%30.07 "HgN/A
1:50 PM64 °FScattered clouds.5 mph83%30.07 "HgN/A
1:20 PM64 °FBroken clouds.6 mph83%30.09 "HgN/A
12:50 PM63 °FScattered clouds.5 mph83%30.09 "HgN/A
12:20 PM63 °FPartly sunny.5 mph83%30.09 "HgN/A
11:50 AM63 °FBroken clouds.3 mph83%30.09 "HgN/A
11:20 AM61 °FPartly sunny.6 mph88%30.09 "HgN/A
10:50 AM61 °FPartly sunny.5 mph88%30.09 "HgN/A
10:20 AM59 °FBroken clouds.5 mph94%30.09 "HgN/A
9:50 AM59 °FBroken clouds.3 mph94%30.09 "HgN/A
9:20 AM57 °FBroken clouds.7 mph100%30.09 "Hg5 mi
8:50 AM57 °FPartly sunny.7 mph100%30.09 "Hg4 mi
8:20 AM57 °FFog.7 mph100%30.09 "Hg3 mi
7:50 AM57 °FFog.7 mph100%30.09 "Hg3 mi
7:20 AM57 °FFog.7 mph100%30.09 "Hg2 mi
6:50 AM57 °FFog.5 mph100%30.09 "Hg3 mi
6:20 AM59 °FPassing clouds.6 mph94%30.09 "Hg6 mi
Weather by CustomWeather, © 2014

See weather overviewHow to use our weather pages